User: anonymous   Login
Location: Churchill
(58.7670°N, 94.1670°W)
Time: 07:07:38
(UTC-06:00)
Language:

Cosmos 1315 Rocket - Orbit

View from above orbital plane
View from above orbital plane
View from above satellite
View from above satellite

Ground track
Ground track

The orbit data is extracted from the following two-line orbital elements,

1 12904U 81103B   15056.86431316  .00002067  00000-0  14798-3 0  9995
2 12904 081.1792 156.7409 0028294 315.8237 044.0725 15.03697569366156
Epoch (UTC): 25 February 2015 20:44:36
Eccentricity: 0.0028294
inclination: 81.1792°
perigee height: 536 km
apogee height: 575 km
right ascension of ascending node: 156.7409°
argument of perigee: 315.8237°
revolutions per day: 15.03697569
mean anomaly at epoch: 44.0725°
orbit number at epoch: 36615

The dashed part of the orbit path shows where the satellite is in the earth's shadow,  

DLR